Zurück zum Katalog

PSLV R/B

AktivSSO
NORAD 39093·ROCKET BODY·🇮🇳 India

Gestartet Feb 25, 2013 von Satish Dhawan Space Centre

Loading…

Nächste Überflüge (nächste 24 Stunden)

TLE

AktuellSource: Space-Track

Epoche: Sep 14, 2026, 00:26 UTC

1 39093U 13009H   26257.01831367  .00000202  00000-0  63866-4 0  9995
2 39093  98.0469  95.5632 0044814 123.9764 236.5701 14.48768994715552

Verfolge PSLV R/B in Echtzeit mit AllMySat

Download on the App Store